sat.trackr.live / text

‹ back to catalog

HULIANWANG DIGUI-39

NORAD 64960 · 2025-159E

PAYLOAD ACTIVE UNKNOWN

§ Identity

Operator
Country
PRC
Launch date
2025-07-27
Launch site
TAISC
Launch vehicle
Mass (kg)
RCS (m²)

External: N2YO · Heavens-Above · Gunter

§ Orbital elements

Epoch: 2026-09-21T22:14:30.799104Z

Period
108.73 min
Inclination
86.4896°
Eccentricity
0.0002057
Mean motion
13.24401252 rev/d
Perigee alt
1,166.4 km
Apogee alt
1,169.5 km
Semi-major
7,546.1 km
B*
-1.5407e-4
RAAN
249.6907°
Arg perigee
84.6721°
Mean anomaly
275.4648°
Rev number
5,593

§ Raw data

HULIANWANG DIGUI-391 64960U 25159E   26264.92674536 -.00000051  00000+0 -15407-3 0  99962 64960  86.4896 249.6907 0002057  84.6721 275.4648 13.24401252 55939

JSON: /api/v1/satellites/64960 · /tle

For live sub-satellite position, see the globe view (requires WebGL).

§ Visibility from observer

Set your observer location to see the next 7 days of passes ≥ 10°. The values pass through the URL so the page stays shareable.

No JS? Fill the form by hand. The geolocation button needs JavaScript.